Regional Weather Roundup
Issued by NWS Goodland, KS

Home | Current Version | Previous Version | Graphics & Text | Print | Product List | Glossary On
Versions: 1 2 3 4 5 6 7 8 9 10 11 12 13 14 15 16 17 18 19 20 21 22 23 24 25 26 27 28 29 30 31 32 33 34 35 36 37 38 39 40 41 42 43 44 45 46 47 48 49 50
000
ASUS43 KGLD 252059
RWRGLD

GOODLAND FORECAST AREA HOURLY WEATHER ROUNDUP
NATIONAL WEATHER SERVICE GOODLAND KS
300 PM MDT WED MAY 25 2016

...OFFICIAL OBSERVATIONS...

CITY           SKY/WX    TMP DP  RH WIND       PRES   REMARKS
GOODLAND KS    SUNNY     75  52  44 S3        29.92F
HILL CITY KS   CLOUDY    74  61  63 NW5       29.87F
IMPERIAL NEB   SUNNY     77  52  41 W7        29.90F
MCCOOK NEB     SUNNY     80  56  43 N5        29.86F
AKRON CO       MOSUNNY   73  49  42 SE10G17   29.95F
BURLINGTON CO  MOSUNNY   75  47  36 E5        29.94F
LIMON CO       MOSUNNY   71  39  31 SE12      29.97F
$$

...UNOFFICIAL OBSERVATIONS...

CITY           SKY/WX    TMP DP  RH WIND       PRES   REMARKS
GOVE KS          N/A     75  32  20 MISG        N/A
LENORA KS        N/A     71  32  23 MISG        N/A
SHARON SPRINGS   N/A     78  58  49 CALM        N/A
KIT CARSON CO    N/A     76  49  38 CALM        N/A
YUMA CO          N/A     73  51  46 SE7G14      N/A
$$




USA.gov is the U.S. government's official web portal to all federal, state and local government web resources and services.